Location: Newark
(22.3060°N, 114.2134°E)
Time: 19:21:30
(UTC+00:00)

Vanguard 2 - Pass Details

Date: 09 August 2021
Orbit: 553 x 2937 km, 32.9° (Epoch: 27 September)

Event Time Altitude Azimuth Distance (km) Brightness Sun altitude
Rises 16:17:04 0° 239° (WSW) 4,779 - -51.9°
Reaches altitude 10° 16:20:53 10° 237° (WSW) 3,399 - -52.0°
Maximum altitude 16:28:47 76° 153° (SSE) 934 - -52.0°
Drops below altitude 10° 16:33:41 10° 68° (ENE) 2,160 - -52.0°
Sets 16:35:39 0° 66° (ENE) 2,936 - -52.0°
